Weather Roundup
Issued by NWS Springfield, MO

Home | Current Version | Previous Version | Text Only | Print | Product List | Glossary On
Versions: 1 2 3 4 5 6 7 8 9 10 11 12 13 14 15 16 17 18 19 20 21 22 23 24 25 26 27 28 29 30 31 32 33 34 35 36 37 38 39 40 41 42 43 44 45 46 47 48 49 50
000
NZUS99 KSGF 281507
HRRSGF

HOURLY WEATHER
NATIONAL WEATHER SERVICE SPRINGFIELD MO
900 AM CST SAT FEB 28 2015

......SGF CWA......

CITY           SKY/WX    TMP DP  RH WIND       PRES   REMARKS
SPRINGFIELD    LGT SNOW  21  15  78 SE14      30.48R WCI   8
JOPLIN         LGT SNOW  21  16  81 SE8       30.49R VSB 3/4 WCI  11
WEST PLAINS    LGT SNOW  19  13  77 E9        30.53R WCI   8
ROLLA          FLURRIES  19  10  68 E12       30.54R WCI   7
OSAGE BEACH    CLOUDY    21   9  58 SE9       30.54F WCI  11
BRANSON        LGT SNOW  19  16  86 E14       30.49S WCI   6

......SURROUNDING SGF CWA......

CITY           SKY/WX    TMP DP  RH WIND       PRES   REMARKS
CHANUTE        LGT SNOW  20  18  92 SE3       30.49R VSB 3/4
PARSONS        SNOW      21  19  92 CALM      30.50R VSB 1/4
COFFEYVILLE    SNOW      21  18  88 E5        30.49S VSB 1/2 WCI  15
EMPORIA        LGT SNOW  17  15  92 SE7       30.46S VSB 3/4 WCI   8
GROVE OK       LGT SNOW  25  21  86 CALM      30.50R VSB 3/4
ROGERS AR      LGT SNOW  21  18  86 E8        30.45R FOG     WCI  12
SILOAM SPRINGS CLOUDY    21  14  73 E6        30.46R VSB 1   WCI  14
HARRISON AR    LGT SNOW  19  15  84 SE13      30.49R FOG     WCI   6
NEAR YELLVILLE CLOUDY    19  14  79 E3        30.54S

......KANSAS AND MISSOURI......

CITY           SKY/WX    TMP DP  RH WIND       PRES   REMARKS
KANSAS CTY INT FLURRIES  19   9  65 SE12      30.51R WCI   7
DOWNTOWN KC    CLOUDY    21   9  59 E6        30.53R WCI  13
COLUMBIA       CLOUDY    19  11  70 E10       30.57S WCI   7
SEDALIA        CLOUDY    22   8  55 SE12      30.54S WCI  10
ST JOSEPH      PTSUNNY   17   9  70 SE8       30.53S WCI   7
ST LOUIS       PTSUNNY   20   7  57 E8        30.64F WCI  10
SPIRIT OF STL  PTSUNNY   20   6  55 E8        30.64S WCI  10
KIRKSVILLE     SUNNY     15   6  67 SE10      30.58S WCI   2
WICHITA        SNOW      17  14  88 SE8       30.41S VSB 1/4 WCI   7
TOPEKA         LGT SNOW  18  13  80 SE7       30.52R VSB 1   WCI   9
OLATHE         LGT SNOW  19  11  70 SE9       30.50R WCI   8

......TENNESSEE......

CITY           SKY/WX    TMP DP  RH WIND       PRES   REMARKS
MEMPHIS        CLOUDY    31  14  49 NE12      30.56R WCI  22
NASHVILLE      CLOUDY    30  13  49 NE7       30.62R WCI  23

......ARKANSAS.......

CITY           SKY/WX    TMP DP  RH WIND       PRES   REMARKS
FAYETTEVILLE   LGT SNOW  22  19  89 E3        30.45R FOG
FT SMITH       CLOUDY    24  19  81 E12       30.51R WCI  13
LITTLE ROCK    CLOUDY    28  17  63 NE10      30.56R WCI  19

......OKLAHOMA.......

CITY           SKY/WX    TMP DP  RH WIND       PRES   REMARKS
TULSA          SNOW      23  21  92 E3        30.48S VSB 1/2
PONCA CITY     SNOW      20  17  88 E7        30.44S VSB 1/2 WCI  11
MCALESTER      MIX PCPN  24  20  84 E5        30.45S WCI  18
OKLAHOMA CITY  LGT SNOW  21  15  78 E8        30.39R VSB 1   WCI  11

......IOWA............

CITY           SKY/WX    TMP DP  RH WIND       PRES   REMARKS
DES MOINES     MOSUNNY    9  -2  61 SE6       30.56S WCI  -1
QUAD CITIES    SUNNY     -2 -10  69 E3        30.68R

......ILLINOIS........

CITY           SKY/WX    TMP DP  RH WIND       PRES   REMARKS
QUINCY         SUNNY     10   1  67 SE9       30.62S WCI  -3
CHICAGO        MOSUNNY    4  -2  76 S5        30.71S WCI  -5



USA.gov is the U.S. government's official web portal to all federal, state and local government web resources and services.